Regional Weather Roundup
Issued by NWS Sioux Falls, SD

Home | Current Version | Previous Version | Text Only | Print | Product List | Glossary On
Versions: 1 2 3 4 5 6 7 8 9 10 11 12 13 14 15 16 17 18 19 20 21 22 23 24 25 26 27 28 29 30 31 32 33 34 35 36 37 38 39 40 41 42 43 44 45 46 47 48 49 50
000
ASUS43 KFSD 100710
RWRFSD

WEATHER ROUNDUP FOR SE SOUTH DAKOTA/SW MINNESOTA/NW IOWA
NATIONAL WEATHER SERVICE SIOUX FALLS SD
200 AM CDT THU JUL 10 2014

NOTE: "FAIR" INDICATES FEW OR NO CLOUDS BELOW 12,000 FEET WITH NO
SIGNIFICANT WEATHER AND OR OBSTRUCTIONS TO VISIBILITY.


SDZ038>040-050-052>070-100800-
SOUTHEAST SOUTH DAKOTA

CITY           SKY/WX    TMP DP  RH WIND       PRES   REMARKS
CHAMBERLAIN    CLEAR     59  55  87 SE5       29.98S
HURON          CLEAR     64  57  78 SE8       29.97F
MADISON        FAIR      59  59 100 SE5       30.02F
MITCHELL       CLEAR     66  59  78 S7        29.99S
SIOUX FALLS    CLEAR     64  60  87 CALM      30.01S
WINNER         FAIR      63  60  90 SE7       29.96F
YANKTON        CLEAR     63  57  82 E3        30.00F
$$

MNZ071-072-080-081-089-090-097-098-100800-
SOUTHWEST MINNESOTA

CITY           SKY/WX    TMP DP  RH WIND       PRES   REMARKS
FAIRMONT       CLEAR     61  52  72 S3        30.03S
JACKSON        CLEAR     61  54  77 CALM      30.03F
LUVERNE        CLEAR     63  55  77 CALM      30.02S
MARSHALL       CLEAR     61  54  77 MISG      30.01F
MONTEVIDEO     CLEAR     61  54  77 S5        30.02S
PIPESTONE      CLEAR     63  54  72 SE5       30.02F
REDWOOD FALLS  CLEAR     62  53  72 SE5       30.01F
TRACY          CLEAR     64  53  66 CALM      30.03S
WINDOM         CLEAR     63  54  72 CALM      30.03F
WORTHINGTON    CLEAR     63  57  82 S6        30.04S
$$

IAZ001>003-012>014-020>022-031-032-NEZ013-014-SDZ071-100800-
NORTHWEST IOWA

CITY           SKY/WX    TMP DP  RH WIND       PRES   REMARKS
CHEROKEE       CLEAR     62  61  97 CALM      30.03S
DENISON        PTCLDY    63  61  94 CALM      30.02S
ESTHERVILLE    CLEAR     60  59  96 S3        30.03F
LE MARS        CLEAR     61  59  94 CALM      30.02F
ORANGE CITY    CLEAR     66  59  77 CALM      30.02F
SHELDON        PTCLDY    61  59  94 SE5       30.02S
SIOUX CITY     CLEAR     63  60  90 SE5       30.01F
SPENCER        PTCLDY    60  59  96 CALM      30.03S FOG
STORM LAKE     CLEAR     63  63 100 SW5       30.04F
$$

ABBREVIATIONS USED IN REMARKS
   TC - TEMPERATURE IN CELSIUS
  WCI - WIND CHILL INDEX
   HX - HEAT INDEX
  VSB - VISIBILITY




USA.gov is the U.S. government's official web portal to all federal, state and local government web resources and services.